THORAD DELTA 1 R/B, 7532

Orbit data source: Space-Track

THORAD DELTA 1 R/B, 7532 is space debris in SSO originally from a launch on Fri, 15 Nov 1974 UTC launched from the Air Force Western Test Range (AFWTR). Debris objects in space refer to the collection of defunct objects orbiting the Earth. Examples of debris include non-operational satellites, rocket bodies, and fragments generated from explosions, collisions, or faulty payload assembly.

Loading next visibility...
Identifier
7532, 1974-089D
Orbit
SSO
Country
Flag of USUS
Related business
Manufacturer
MDAC-HB
Mission
Spacecraft
Bus & Motor
DELTA/TR-201, Unknown motor
Mass
845 kg wet, 845 kg dry
Launch date (UTC)
1974-11-15 (51 years ago)
Launch vehicle
Unknown
Launch site
Air Force Western Test Range (AFWTR)
Object type
Payload
Rocket body
Debris
Shape & HBR
Unknown
Radar Cross Section
Medium (>0.1 m² and <1 m²)

Expand to show TLE details & history
Last TLE update: 11 hours ago

TLE from 11 hours ago
0 THORAD DELTA 1 R/B
1  7532U 74089D   25289.10792818 -.00000004  00000-0  28896-3 0  9998
2  7532 101.6577 256.5807 0066418 294.5587 198.3449 12.39919407304778
Epoch: 2025-10-16T02:35Z
TLE epoch observation values (Epoch: 2025-10-16T02:35:24.994Z)
Latitude
46.15578°
Longitude
25.19783°
Altitude
1,563.521 km
Speed
7.068 km/s
True Right ascension
05h 55m 41s
True Declination
46° 00' 05"
Sunlit
Object was in daylight at epoch
Visualization orbit readout
Latitude
Unknown
Longitude
Unknown
Altitude
Unknown
Speed
Unknown
Apparent Right ascension
Unknown
Apparent Declination
Unknown
Sunlit
N/A
Visualization observer readout
Local Sidereal Time
07:49:01
Azimuth
Unknown
Elevation
Unknown
Doppler factor
Unknown
Orbital elements
Apogee altitude
1,556.854 km
Perigee altitude
1,452.145 km
Semi-major axis
7,882.636 km
Eccentricity
0.00664
Inclination
101.6577°
RAAN
256.5807°
Arg. of periapsis
294.5587°
True anomaly
198.10723°
Mean anomaly
198.3449°
Eccentric anomaly
198.22588°
Mean motion
3.10124 °/min
Orbital period
116.08 mins
BSTAR
0.00028896
Loading maneuver chart data...
Computing Atmospheric mass density...

Documentation

Showing up to 5 results
|